This demonstration page uses our WeatherBlox Daily Observations layout. Learn more.

Left ArrowRight Arrow

39.08367, -84.50855

Hourly Observations for March 31, 2018

Temp ( °F °C ) Dew Point ( °F °C ) Humidity (%) Winds ( mph kmh ) Pressure ( in mb ) Visibility ( mi km ) Precip ( " mm )
12:13 am 00:13 Clear with Mist and Fog 35 1.7 35 1.7 100 100 Calm 30.33 1027 2 3.21868 0 0
12:21 am 00:21 Clear with Mist and Fog 35 1.7 34 1.1 96 96 Calm 30.33 1027 3 4.82802 0 0
12:24 am 00:24 Clear with Mist and Fog 33 0.6 33 0.6 100 100 Calm 30.33 1027 1.75 2.816345 0 0
12:36 am 00:36 Clear with Fog 34 1.1 34 1.1 100 100 Calm 30.33 1027 0.25 0.402335 0 0
12:44 am 00:44 Mostly Cloudy with Fog 34 1.1 34 1.1 100 100 Calm 30.33 1027 0.5 0.80467 0 0
12:50 am 00:50 Partly Cloudy with Mist and Fog 34 1 34 1 100 100 Calm 30.33 1027 1.5 2.41401 0 0
12:53 am 00:53 Mostly Cloudy with Mist and Fog 33 0.6 33 0.6 100 100 Calm 30.29 1026 2 3.21868 0 0
12:56 am 00:56 Mostly Cloudy with Mist and Fog 34 1.1 34 1.1 100 100 SW 3 6 30.33 1027 0.75 1.207005 0 0
1:20 am 01:20 Mostly Cloudy with Fog 35 1.7 35 1.7 100 100 Calm 30.33 1027 0.25 0.402335 0 0
1:53 am 01:53 Mostly Cloudy with Fog 34 1.1 34 1.1 100 100 S 3 6 30.29 1026 0.25 0.402335 0 0
2:53 am 02:53 Mostly Cloudy with Fog 35 1.7 35 1.7 100 100 Calm 30.29 1026 0.25 0.402335 0 0
3:53 am 03:53 Mostly Cloudy with Fog 34 1.1 34 1.1 100 100 S 3 6 30.29 1026 0.25 0.402335 0 0
4:53 am 04:53 Mostly Cloudy with Fog 34 1.1 34 1.1 100 100 Calm 30.28 1025 0.25 0.402335 0 0
5:53 am 05:53 Mostly Cloudy with Fog 33 0.6 33 0.6 100 100 Calm 30.27 1025 0.25 0.402335 0 0
6:53 am 06:53 Mostly Cloudy with Fog 33 0.6 33 0.6 100 100 S 6 9 30.27 1025 0.25 0.402335 0 0
7:53 am 07:53 Mostly Cloudy with Fog 35 1.7 35 1.7 100 100 Calm 30.27 1025 0.25 0.402335 0 0
8:09 am 08:09 Mostly Cloudy with Fog 35 1.7 35 1.7 100 100 Calm 30.3 1026 0.5 0.80467 0 0
8:27 am 08:27 Cloudy with Fog 36 2.2 36 2.2 100 100 SSW 3 6 30.3 1026 0.25 0.402335 0 0
8:40 am 08:40 Cloudy with Fog 36 2.2 36 2.2 100 100 S 3 6 30.24 1024 0.5 0.80467 0 0
8:53 am 08:53 Cloudy with Mist and Fog 36 2.2 36 2.2 100 100 SSW 6 9 30.26 1025 0.75 1.207005 0 0
9:06 am 09:06 Cloudy with Mist and Fog 36 2.2 36 2.2 100 100 SW 6 9 30.24 1024 1.25 2.011675 0 0
9:24 am 09:24 Cloudy with Mist and Fog 38 3.3 38 3.3 100 100 S 7 11 30.24 1024 2.5 4.02335 0 0
9:53 am 09:53 Mostly Cloudy with Mist and Fog 40 4.4 40 4.4 100 100 SW 7 11 30.24 1024 3 4.82802 0 0
10:05 am 10:05 Partly Cloudy 41 5 41 5 100 100 S 5 7 30.24 1024 7 11.26538 0 0
10:53 am 10:53 Sunny 47 8.3 42 5.6 83 83 S 7 11 30.25 1024 10 16.0934 0 0
11:53 am 11:53 Sunny 54 12.2 41 5 62 62 SSE 13 20 30.21 1023 10 16.0934 0 0
12:53 pm 12:53 Sunny 57 13.9 40 4.4 53 53 SSW 22 35 30.16 1022 10 16.0934 0 0
1:53 pm 13:53 Sunny 59 15 40 4.4 49 49 S 20 31 30.14 1021 10 16.0934 0 0
2:53 pm 14:53 Mostly Cloudy 60 15.6 38 3.3 44 44 SSW 21 33 30.1 1019 10 16.0934 0 0
3:53 pm 15:53 Sunny 62 16.7 38 3.3 41 41 SSW 24 39 30.08 1019 10 16.0934 0 0
4:53 pm 16:53 Cloudy 60 15.6 37 2.8 42 42 SSW 18 30 30.05 1018 10 16.0934 0 0
5:53 pm 17:53 Cloudy 59 15 38 3.3 46 46 SSW 20 31 30.04 1017 10 16.0934 0 0
6:53 pm 18:53 Cloudy 59 15 38 3.3 46 46 SW 13 20 30.04 1017 10 16.0934 0 0
7:53 pm 19:53 Cloudy with Light Rain 54 12.2 42 5.6 64 64 SW 14 22 30.06 1018 10 16.0934 0.01 0.254
8:53 pm 20:53 Cloudy with Light Rain 51 10.6 46 7.8 83 83 WSW 8 13 30.09 1019 8 12.87472 0.03 0.762
9:53 pm 21:53 Cloudy with Light Rain 50 10 46 7.8 86 86 SW 10 17 30.09 1019 9 14.48406 0.03 0.762
10:53 pm 22:53 Cloudy with Light Rain 50 10 46 7.8 86 86 SSW 14 22 30.09 1019 10 16.0934 0.05 1.27
11:53 pm 23:53 Cloudy with Light Rain 50 10 47 8.3 89 89 SW 9 15 30.09 1019 10 16.0934 0.01 0.254

Powered by AerisWeather